Location: Warszawa
(52.2500°N, 21.0000°E)
Time: 11:19:09
(UTC+01:00)

Transit 4A - All Passes

Search period start: 28 January 2023 00:00
Search period end: 07 February 2023 00:00
Orbit: 871 x 973 km, 66.8° (Epoch: 27 January)

Date Brightness Start Highest point End Pass type
(mag) Time Alt. Az. Time Alt. Az. Time Alt. Az.
28 Jan - 00:52:19 10° NNW 00:57:10 26° NNE 01:02:05 10° ENE night (unlit)
28 Jan - 02:38:41 10° NW 02:44:34 66° NE 02:50:35 10° SE visible
28 Jan - 04:25:27 10° NW 04:30:35 31° WSW 04:35:49 10° S visible
28 Jan - 17:52:32 10° SSE 17:57:09 25° ESE 18:01:46 10° ENE visible
28 Jan - 19:37:07 10° SW 19:42:56 77° NW 19:48:49 10° NE visible
28 Jan - 21:25:15 10° W 21:30:11 28° NNW 21:35:10 10° NNE visible
28 Jan - 23:14:19 10° NW 23:18:29 20° N 23:22:42 10° NE night (unlit)
29 Jan - 01:01:35 10° NNW 01:06:44 30° NNE 01:11:57 10° E night (unlit)
29 Jan - 02:47:53 10° NW 02:53:51 86° NE 02:59:56 10° SE visible
29 Jan - 04:35:05 10° WNW 04:39:33 23° WSW 04:44:06 10° SSW visible
29 Jan - 18:00:56 10° S 18:06:08 35° ESE 18:11:20 10° NE visible
29 Jan - 19:46:29 10° SW 19:52:14 59° NW 19:58:01 10° NE visible
29 Jan - 21:35:06 10° WNW 21:39:46 24° NNW 21:44:29 10° NE visible
29 Jan - 23:23:55 10° NW 23:28:10 20° N 23:32:29 10° NE night (unlit)
30 Jan - 01:10:49 10° NNW 01:16:14 36° NNE 01:21:44 10° E night (unlit)
30 Jan - 02:57:09 10° NW 03:03:03 72° SW 03:09:06 10° SSE visible
30 Jan - 04:45:02 10° WNW 04:48:27 16° WSW 04:51:55 10° SW visible
30 Jan - 18:09:37 10° S 18:15:10 48° ESE 18:20:46 10° NE visible
30 Jan - 19:56:00 10° WSW 20:01:36 46° NW 20:07:14 10° NE visible
30 Jan - 21:44:57 10° WNW 21:49:23 22° NNW 21:53:53 10° NE visible
30 Jan - 23:33:24 10° NW 23:37:50 21° NNE 23:42:20 10° ENE night (unlit)
31 Jan - 01:20:02 10° NW 01:25:41 44° NE 01:31:26 10° ESE night (unlit)
31 Jan - 03:06:26 10° NW 03:12:12 53° WSW 03:18:04 10° SSE night (unlit)
31 Jan - 04:56:14 10° W 04:57:17 10° W 04:58:19 10° WSW night (unlit)
31 Jan - 16:36:17 10° SE 16:39:02 14° ESE 16:41:48 10° ENE daylight
31 Jan - 18:18:32 10° SSW 18:24:17 67° ESE 18:30:05 10° NE visible
31 Jan - 20:05:40 10° WSW 20:11:02 37° NW 20:16:28 10° NNE visible
31 Jan - 21:54:48 10° NW 21:59:03 20° N 22:03:22 10° NE visible
31 Jan - 23:42:47 10° NW 23:47:29 24° NNE 23:52:13 10° ENE night (unlit)
01 Feb - 01:29:14 10° NW 01:35:04 56° NE 01:41:00 10° ESE night (unlit)
01 Feb - 03:15:50 10° NW 03:21:16 39° WSW 03:26:50 10° S night (unlit)
01 Feb - 16:43:50 10° SSE 16:47:54 20° ESE 16:51:58 10° ENE daylight
01 Feb - 18:27:38 10° SW 18:33:28 89° SE 18:39:21 10° NE visible
01 Feb - 20:15:24 10° W 20:20:31 31° NNW 20:25:42 10° NNE visible
01 Feb - 22:04:33 10° NW 22:08:44 20° N 22:12:58 10° NE visible
01 Feb - 23:52:06 10° NNW 23:57:04 27° NNE 00:02:06 10° E night (unlit)
02 Feb - 01:38:26 10° NW 01:44:22 73° NE 01:50:26 10° SE night (unlit)
02 Feb - 03:25:19 10° NW 03:30:17 28° WSW 03:35:20 10° SSW night (unlit)
02 Feb - 16:52:00 10° SSE 16:56:50 28° ESE 17:01:41 10° NE visible
02 Feb - 18:36:54 10° SW 18:42:43 70° NW 18:48:35 10° NE visible
02 Feb - 20:25:13 10° W 20:30:04 26° NNW 20:34:59 10° NNE visible
02 Feb - 22:14:13 10° NW 22:18:25 20° N 22:22:40 10° NE visible
03 Feb - 00:01:22 10° NNW 00:06:36 32° NNE 00:11:56 10° E night (unlit)
03 Feb - 01:47:40 10° NW 01:53:38 86° SW 01:59:43 10° SE night (unlit)
03 Feb - 03:35:02 10° WNW 03:39:13 20° WSW 03:43:29 10° SSW night (unlit)
03 Feb - 17:00:30 10° S 17:05:50 39° ESE 17:11:12 10° NE visible
03 Feb - 18:46:21 10° WSW 18:52:03 54° NW 18:57:48 10° NE visible
03 Feb - 20:35:05 10° WNW 20:39:40 23° NNW 20:44:19 10° NE visible
03 Feb - 22:23:46 10° NW 22:28:06 21° N 22:32:29 10° ENE visible
04 Feb - 00:10:35 10° NNW 00:16:06 38° NE 00:21:42 10° ESE night (unlit)
04 Feb - 01:56:56 10° NW 02:02:49 65° WSW 02:08:49 10° SSE night (unlit)
04 Feb - 03:45:11 10° WNW 03:48:06 14° WSW 03:51:03 10° SW night (unlit)
04 Feb - 15:29:12 10° ESE 15:29:52 10° E 15:30:32 10° E daylight
04 Feb - 17:09:16 10° SSW 17:14:54 54° ESE 17:20:35 10° NE visible
04 Feb - 18:55:55 10° WSW 19:01:26 43° NW 19:07:01 10° NNE visible
04 Feb - 20:44:56 10° WNW 20:49:18 21° NNW 20:53:45 10° NE visible
04 Feb - 22:33:13 10° NW 22:37:45 22° NNE 22:42:21 10° ENE visible
05 Feb - 00:19:47 10° NW 00:25:31 48° NE 00:31:21 10° ESE night (unlit)
05 Feb - 02:06:15 10° NW 02:11:56 48° WSW 02:17:44 10° S night (unlit)
05 Feb - 15:35:23 10° SE 15:38:41 16° ESE 15:41:59 10° ENE daylight
05 Feb - 17:18:15 10° SSW 17:24:02 74° SE 17:29:53 10° NE visible
05 Feb - 19:05:36 10° W 19:10:53 35° NNW 19:16:15 10° NNE visible
05 Feb - 20:54:45 10° NW 20:58:59 20° N 21:03:16 10° NE visible
05 Feb - 22:42:35 10° NNW 22:47:22 25° NNE 22:52:14 10° ENE visible
06 Feb - 00:28:59 10° NW 00:34:53 61° NE 00:40:53 10° SE night (unlit)
06 Feb - 02:15:40 10° NW 02:21:00 35° WSW 02:26:24 10° S night (unlit)
06 Feb - 15:43:12 10° SSE 15:47:34 22° ESE 15:51:57 10° ENE daylight
06 Feb - 17:27:25 10° SW 17:33:14 84° NW 17:39:08 10° NE visible
06 Feb - 19:15:22 10° W 19:20:24 29° NNW 19:25:30 10° NNE visible
06 Feb - 21:04:29 10° NW 21:08:40 20° N 21:12:54 10° NE visible
06 Feb - 22:51:53 10° NNW 22:56:58 29° NNE 23:02:06 10° E visible
